Tracking 19281 objects as of 16-Nov-2018
HD Live streaming from Space Station
objects crossing your sky now

COSMOS 1344

Track COSMOS 1344 now!
10-day predictions
COSMOS 1344 is classified as:


NORAD ID: 13110
Int'l Code: 1982-024A
Perigee: 970.6 km
Apogee: 1,014.2 km
Inclination: 82.9 °
Period: 104.8 minutes
Semi major axis: 7363 km
RCS: 2.1071 m2 (large)
Launch date: March 24, 1982
Source: Commonwealth of Independent States (former USSR) (CIS)
Launch site: PLESETSK MISSILE AND SPACE COMPLEX (PKMTR)
aabbcc
Your satellite tracking list
Your tracking list is empty




NASA's NSSDC Master Catalog

Two Line Element Set (TLE):
1 13110U 82024A   18320.22291976  .00000026  00000-0  11409-4 0  9991
2 13110  82.9208 313.0163 0029631 135.1274 292.7965 13.73987750837354
Source of the keplerian elements: AFSPC